Terminal Aerodrome Forecast
Issued by NWS

Home | Current Version | Previous Version | Text Only | Print | Product List | Glossary Off
Versions: 1 2 3 4 5 6 7 8 9 10 11 12 13 14 15 16 17 18 19 20 21

000
FTUS43 KGRB 232339
TAFMTW
TAF
KMTW 232339Z 2400/2424 02007KT P6SM BKN070
     FM240600 01008KT P6SM BKN021
     FM240700 01008KT P6SM BKN015
     FM241600 03010KT P6SM SCT040 BKN080
     FM242100 04008KT P6SM SCT060=

USA.gov is the U.S. government's official web portal to all federal, state and local government web resources and services.